Location: Sweet Grass
(48.9965°N, 111.9649°W)
Time: 08:12:35
(UTC+00:00)

N. Korean satellite - Pass Details

Date: 02 December 2022
Orbit: 407 x 442 km, 97.3° (Epoch: 04 February)

Event Time Altitude Azimuth Distance (km) Brightness Sun altitude
Rises 12:34:42 0° 17° (NNE) 2,526 10.3 -23.3°
Reaches altitude 10° 12:36:50 10° 23° (NNE) 1,641 9.4 -22.9°
Maximum altitude 12:40:16 50° 99° (E) 604 7.3 -22.4°
Drops below altitude 10° 12:43:39 10° 177° (S) 1,608 9.3 -21.8°
Sets 12:45:42 0° 182° (S) 2,468 10.2 -21.5°
